Weather History for Griffin-Spaldg Cnty AP, Griff, GA

Change the Weather History Date:

Wednesday, April 2, 2014

  Actual Average (KFFC) Record (KFFC)
Temperature  
Mean Temperature 70 °F 57 °F  
Max Temperature 80 °F 71 °F 84 °F (1999)
Min Temperature 59 °F 44 °F 30 °F (1997)
Degree Days  
Heating Degree Days 0 8  
Month to date heating degree days 16  
Since 1 July heating degree days 2768  
Cooling Degree Days 4 0  
Month to date cooling degree days 0  
Year to date cooling degree days 5  
Growing Degree Days 20 (Base 50)    
Moisture  
Dew Point -    
Average Humidity    
Maximum Humidity    
Minimum Humidity    
Precipitation  
Precipitation 0.00 in 0.17 in 1.33 in (2009)
Month to date precipitation 0.35  
Year to date precipitation 14.56  
Sea Level Pressure  
Sea Level Pressure 30.12 in    
Wind  
Wind Speed 4 mph (WSW)    
Max Wind Speed 10 mph    
Max Gust Speed 16 mph    
Visibility 10 miles    
Events      
T = Trace of Precipitation, MM = Missing Value Source: NWS Daily Summary

Daily Weather History Graph

Daily Weather History Graph

Search for Another Location

Airport:

Trip Planner

Search our weather history database for the weather conditions in past years. The results will help you decide how hot, cold, wet, or windy it might be!

Date:

Astronomy

Apr. 02, 2014 Rise Set
Actual Time 7:23 AM EDT 7:58 PM EDT
Civil Twilight 6:58 AM EDT 8:23 PM EDT
Nautical Twilight 6:29 AM EDT 8:52 PM EDT
Astronomical Twilight 5:59 AM EDT 9:22 PM EDT
Moon 9:15 AM EDT (4/2) 11:11 PM EDT (4/2)
Length of Visible Light 13h 24m
Length of Day
12h 34m
Waxing Crescent, 10% of the Moon is Illuminated
Apr 2
Waxing Crescent
Apr 7
First Quarter
Apr 15
Full
Apr 22
Last Quarter
Apr 29
New

Hourly Weather History & Observations

Time (EDT) Temp. Dew Point Humidity Pressure Visibility Wind Dir Wind Speed Gust Speed Precip Events Conditions
12:15 AM 68.0 °F - N/A% 30.12 in 10.0 mi SW 3.5 mph - N/A   Clear
12:35 AM 66.2 °F - N/A% 30.12 in 10.0 mi Calm Calm - N/A   Clear
12:55 AM 66.2 °F - N/A% 30.12 in 10.0 mi Calm Calm - N/A   Clear
1:15 AM 64.4 °F - N/A% 30.12 in 10.0 mi Calm Calm - N/A   Clear
1:35 AM 64.4 °F - N/A% 30.12 in 10.0 mi Calm Calm - N/A   Clear
2:15 AM 64.4 °F - N/A% 30.12 in 10.0 mi SW 3.5 mph - N/A   Clear
2:35 AM 64.4 °F - N/A% 30.12 in 10.0 mi Calm Calm - N/A   Clear
2:55 AM 64.4 °F - N/A% 30.12 in 10.0 mi Calm Calm - N/A   Mostly Cloudy
3:15 AM 62.6 °F - N/A% 30.12 in 10.0 mi Calm Calm - N/A   Scattered Clouds
3:35 AM 62.6 °F - N/A% 30.12 in 10.0 mi WSW 3.5 mph - N/A   Clear
3:55 AM 62.6 °F - N/A% 30.12 in 10.0 mi WSW 4.6 mph - N/A   Scattered Clouds
4:15 AM 62.6 °F - N/A% 30.12 in 10.0 mi SW 5.8 mph - N/A   Scattered Clouds
4:35 AM 62.6 °F - N/A% 30.12 in 10.0 mi SSW 3.5 mph - N/A   Scattered Clouds
4:55 AM 60.8 °F - N/A% 30.12 in 10.0 mi SW 4.6 mph - N/A   Mostly Cloudy
5:15 AM 60.8 °F - N/A% 30.12 in 10.0 mi WSW 3.5 mph - N/A   Scattered Clouds
5:35 AM 59.0 °F - N/A% 30.12 in 10.0 mi WNW 3.5 mph - N/A   Clear
5:55 AM 59.0 °F - N/A% 30.12 in 10.0 mi Calm Calm - N/A   Clear
6:15 AM 59.0 °F - N/A% 30.12 in 10.0 mi West 3.5 mph - N/A   Clear
6:35 AM 59.0 °F - N/A% 30.12 in 10.0 mi WSW 4.6 mph - N/A   Clear
6:55 AM 59.0 °F - N/A% 30.13 in 10.0 mi WSW 4.6 mph - N/A   Scattered Clouds
7:15 AM 59.0 °F - N/A% 30.13 in 10.0 mi WSW 3.5 mph - N/A   Scattered Clouds
8:35 AM 62.6 °F - N/A% 30.15 in 10.0 mi West 3.5 mph - N/A   Scattered Clouds
8:55 AM 62.6 °F - N/A% 30.15 in 10.0 mi West 5.8 mph - N/A   Scattered Clouds
9:15 AM 62.6 °F - N/A% 30.15 in 10.0 mi West 5.8 mph - N/A   Scattered Clouds
9:35 AM 64.4 °F - N/A% 30.15 in 10.0 mi WSW 5.8 mph - N/A   Scattered Clouds
9:55 AM 64.4 °F - N/A% 30.16 in 10.0 mi WSW 4.6 mph - N/A   Scattered Clouds
10:15 AM 68.0 °F - N/A% 30.16 in 10.0 mi WSW 3.5 mph - N/A   Scattered Clouds
10:35 AM 69.8 °F - N/A% 30.16 in 10.0 mi West 5.8 mph - N/A   Clear
10:55 AM 69.8 °F - N/A% 30.16 in 10.0 mi SSW 5.8 mph - N/A   Scattered Clouds
11:15 AM 69.8 °F - N/A% 30.17 in 10.0 mi WSW 5.8 mph - N/A   Scattered Clouds
11:35 AM 69.8 °F - N/A% 30.17 in 10.0 mi West 6.9 mph - N/A   Clear
11:55 AM 73.4 °F - N/A% 30.17 in 10.0 mi West 4.6 mph - N/A   Scattered Clouds
12:35 PM 75.2 °F - N/A% 30.16 in 10.0 mi WSW 5.8 mph - N/A   Scattered Clouds
12:55 PM 77.0 °F - N/A% 30.16 in 10.0 mi SSW 10.4 mph - N/A   Clear
1:15 PM 77.0 °F - N/A% 30.15 in 10.0 mi West 9.2 mph - N/A   Clear
1:55 PM 78.8 °F - N/A% 30.14 in 10.0 mi SW 9.2 mph - N/A   Clear
2:15 PM 78.8 °F - N/A% 30.13 in 10.0 mi SSW 9.2 mph - N/A   Clear
2:35 PM 78.8 °F - N/A% 30.12 in 10.0 mi West 10.4 mph - N/A   Scattered Clouds
2:55 PM 78.8 °F - N/A% 30.12 in 10.0 mi West 8.1 mph - N/A   Scattered Clouds
3:15 PM 78.8 °F - N/A% 30.11 in 10.0 mi WSW 10.4 mph - N/A   Overcast
3:35 PM 78.8 °F - N/A% 30.11 in 10.0 mi SW 10.4 mph 16.1 mph N/A   Scattered Clouds
3:55 PM 78.8 °F - N/A% 30.09 in 10.0 mi WSW 8.1 mph - N/A   Clear
4:15 PM 78.8 °F - N/A% 30.09 in 10.0 mi South 8.1 mph 16.1 mph N/A   Scattered Clouds
4:35 PM 80.6 °F - N/A% 30.09 in 10.0 mi SW 6.9 mph - N/A   Scattered Clouds
4:55 PM 78.8 °F - N/A% 30.09 in 10.0 mi West 8.1 mph - N/A   Clear
5:15 PM 80.6 °F - N/A% 30.08 in 10.0 mi West 9.2 mph - N/A   Clear
5:35 PM 78.8 °F - N/A% 30.08 in 10.0 mi SW 5.8 mph - N/A   Clear
5:55 PM 78.8 °F - N/A% 30.08 in 10.0 mi SW 6.9 mph - N/A   Clear
6:15 PM 78.8 °F - N/A% 30.09 in 10.0 mi SSW 9.2 mph - N/A   Clear
6:35 PM 78.8 °F - N/A% 30.09 in 10.0 mi SW 6.9 mph - N/A   Clear
6:55 PM 78.8 °F - N/A% 30.09 in 10.0 mi SSW 6.9 mph - N/A   Clear
7:15 PM 77.0 °F - N/A% 30.09 in 10.0 mi SW 4.6 mph - N/A   Clear
7:35 PM 77.0 °F - N/A% 30.09 in 10.0 mi SSW 3.5 mph - N/A   Clear
7:55 PM 75.2 °F - N/A% 30.09 in 10.0 mi Calm Calm - N/A   Clear
8:15 PM 75.2 °F - N/A% 30.09 in 10.0 mi Calm Calm - N/A   Mostly Cloudy
8:35 PM 73.4 °F - N/A% 30.10 in 10.0 mi Calm Calm - N/A   Mostly Cloudy
8:55 PM 73.4 °F - N/A% 30.11 in 10.0 mi Calm Calm - N/A   Mostly Cloudy
9:15 PM 73.4 °F - N/A% 30.11 in 10.0 mi Calm Calm - N/A   Scattered Clouds
9:35 PM 73.4 °F - N/A% 30.11 in 10.0 mi SW 3.5 mph - N/A   Mostly Cloudy
9:55 PM 73.4 °F - N/A% 30.11 in 10.0 mi SSW 3.5 mph - N/A   Scattered Clouds
10:15 PM 71.6 °F - N/A% 30.11 in 10.0 mi Calm Calm - N/A   Clear
10:35 PM 69.8 °F - N/A% 30.11 in 10.0 mi Calm Calm - N/A   Clear
10:55 PM 69.8 °F - N/A% 30.11 in 10.0 mi Calm Calm - N/A   Clear
11:15 PM 69.8 °F - N/A% 30.11 in 10.0 mi South 3.5 mph - N/A   Clear
11:35 PM 69.8 °F - N/A% 30.11 in 10.0 mi SSW 4.6 mph - N/A   Clear
11:55 PM 69.8 °F - N/A% 30.11 in 10.0 mi SW 4.6 mph - N/A   Clear